COSMOS 1275 DEB, 13801

Orbit data source: Space-Track

COSMOS 1275 DEB, 13801 is space debris in LEO originally from a launch on Thu, 04 Jun 1981 UTC launched from the Plesetsk Missile And Space Complex (PKMTR). Debris objects in space refer to the collection of defunct objects orbiting the Earth. Examples of debris include non-operational satellites, rocket bodies, and fragments generated from explosions, collisions, or faulty payload assembly.

Loading next visibility...
Identifier
13801, 1981-053GV
Orbit
LEO
Country
Flag of CISCIS
Related business
Manufacturer
Unknown
Mission
Spacecraft
Bus & Motor
Unknown
Mass
Unknown
Launch date (UTC)
1981-06-04 (44 years ago)
Launch vehicle
Unknown
Launch site
Plesetsk Missile And Space Complex (PKMTR)
Object type
Payload
Rocket body
Debris
Shape & HBR
Unknown shape, 0.1 m
Radar Cross Section
Small (<0.1 m²)

Expand to show TLE details & history
Last TLE update: 15 hours ago

TLE from 15 hours ago
0 COSMOS 1275 DEB
1 13801U 81053GV  25289.13946411  .00003534  00000-0  16566-2 0  9996
2 13801  82.7984 183.4411 0048193 324.3931  35.4036 14.19341160184953
Epoch: 2025-10-16T03:20Z
TLE epoch observation values (Epoch: 2025-10-16T03:20:49.699Z)
Latitude
-0.00004°
Longitude
108.33054°
Altitude
802.285 km
Speed
7.467 km/s
True Right ascension
12h 13m 45s
True Declination
0° 00' 00"
Sunlit
Object was in daylight at epoch
Visualization orbit readout
Latitude
Unknown
Longitude
Unknown
Altitude
Unknown
Speed
Unknown
Apparent Right ascension
Unknown
Apparent Declination
Unknown
Sunlit
N/A
Visualization observer readout
Local Sidereal Time
13:09:25
Azimuth
Unknown
Elevation
Unknown
Doppler factor
Unknown
Orbital elements
Apogee altitude
859.388 km
Perigee altitude
789.963 km
Semi-major axis
7,202.812 km
Eccentricity
0.00482
Inclination
82.7984°
RAAN
183.4411°
Arg. of periapsis
324.3931°
True anomaly
35.72511°
Mean anomaly
35.4036°
Eccentric anomaly
35.5642°
Mean motion
3.5505 °/min
Orbital period
101.39 mins
BSTAR
0.0016566
Loading maneuver chart data...
Computing Atmospheric mass density...

Documentation

Showing up to 5 results
|